Volver al catálogo

NOAA 17 DEB

ActivoSSO
NORAD 48766·DEBRIS·🇺🇸 United States

Lanzado Jun 24, 2002 desde Vandenberg Space Force Base

Loading…

Próximos Pases (próximas 24 horas)

TLE

ActualizadoSource: Space-Track

Época: Sep 13, 2026, 02:57 UTC

1 48766U 02032DB  26256.12352335  .00006574  00000-0  13716-2 0  9995
2 48766  98.6104 222.0144 0007796 352.4462   7.6619 14.60242891284078

Sigue NOAA 17 DEB en tiempo real con AllMySat

Download on the App Store